Location: Unspecified
(0.0000°N, 0.0000°E)
Time: 01:40:27
(UTC+02:00)

BREEZE-M DEB (TANK) - Visible Passes

Search period start: 23 May 2015 00:00
Search period end: 02 June 2015 00:00
Orbit: 348 x 16356 km, 49.4° (Epoch: 21 May)

Date Brightness Start Highest point End Pass type
(mag) Time Alt. Az. Time Alt. Az. Time Alt. Az.
23 May 8.2 04:15:52 10° NW 06:49:22 48° SW 07:43:26 10° S visible
23 May 8.8 23:39:14 10° N 00:40:16 39° NE 03:08:17 10° SE visible
24 May 8.1 05:09:01 10° NW 07:47:23 32° SW 08:26:30 10° S visible
25 May 8.9 00:23:41 10° NNW 01:47:37 56° NE 03:57:57 10° SE visible
25 May 7.9 06:10:34 10° WNW 08:45:13 18° SW 09:07:01 10° SSW visible
26 May 8.8 01:08:53 10° NNW 02:53:30 75° ENE 04:45:21 10° SSE visible
27 May 8.6 01:54:52 10° NNW 03:57:17 87° WSW 05:31:23 10° SSE visible
27 May 8.5 21:39:49 10° NNE 21:43:57 11° NNE 00:12:18 10° ESE visible
28 May 8.4 02:41:54 10° NNW 04:59:08 68° WSW 06:16:27 10° SSE visible
28 May 8.7 22:14:05 10° N 22:45:37 22° NE 01:27:00 10° ESE visible
29 May 8.3 03:30:36 10° NW 05:59:36 51° SW 07:00:42 10° SSE visible
29 May 8.8 22:56:30 10° N 23:49:49 36° NE 02:22:51 10° SE visible
30 May 8.2 04:22:14 10° NW 06:59:24 35° SW 07:44:00 10° S visible
30 May 8.9 23:40:22 10° NNW 00:54:33 53° NE 03:13:14 10° SE visible
31 May 8.0 05:20:26 10° WNW 07:58:50 20° SW 08:25:22 10° S visible
01 Jun 8.8 00:25:02 10° NNW 01:58:54 71° ENE 04:01:00 10° SE visible
